Home   Weather   Kingston   Past weeks

Flag for Norfolk Island Past Weather in Kingston, Norfolk Island — Yesterday and Last 2 Weeks

Now
64 °F

Passing clouds.


Feels Like: 64 °F
Forecast: 65 / 70 °F
Wind: 9 mph from Southeast

Location: Norfolk Island Airport

Current Time: May 1, 2017 at 12:10:03 am

Latest Report: Apr 30, 2017 at 11:30 pm


Visibility: N/A

Pressure: 29.98 "Hg

Humidity: 68%

Dew Point: 54 °F

Location of KingstonLocation

Past Weather in Kingston — Graph

°F

Kingston Temperature Yesterday

Maximum temperature yesterday: 70 °F (at 10:00 am)
Minimum temperature yesterday: 66 °F (at 12:32 am)
Average temperature yesterday: 68 °F

High & Low Weather Summary for the Past Weeks

 TemperatureHumidityPressure
High75 °F (Apr 23, 2:00 pm)100% (Apr 23, 4:00 am)30.24 "Hg (Apr 23, 4:00 am)
Low63 °F (Apr 15, 11:00 pm)38% (Apr 26, 1:00 pm)29.71 "Hg (Apr 29, 12:00 pm)
Average68 °F70%30.04 "Hg
* Reported Apr 15 11:00 pm — Apr 30 11:00 pm, Kingston, Weather by CustomWeather, © 2017

Note: Actual official high and low records may vary slightly from our data, if they occured in-between our weather recording intervals... More about our weather records

Advertising

Kingston Weather History for the Previous 24 Hours

Scroll right to see more
 ConditionsComfort  
Time TempWeatherWind HumidityBarometerVisibility
11:00 pm
Sun, Apr 30
66 °FClear.10 mph60%29.98 "HgN/A
10:30 pm66 °FClear.9 mph64%29.98 "HgN/A
10:00 pm66 °FPartly cloudy.10 mph64%29.98 "HgN/A
9:30 pm66 °FPassing clouds.12 mph60%29.98 "HgN/A
9:00 pm66 °FClear.14 mph60%29.98 "HgN/A
8:30 pm66 °FPassing clouds.12 mph56%29.95 "HgN/A
8:00 pm66 °FPassing clouds.13 mph60%29.95 "HgN/A
7:30 pm66 °FPassing clouds.13 mph60%29.95 "HgN/A
7:00 pm66 °FPassing clouds.15 mph60%29.92 "HgN/A
6:30 pm66 °FPartly cloudy.13 mph60%29.92 "HgN/A
6:00 pm66 °FPassing clouds.13 mph60%29.92 "HgN/A
5:30 pm66 °FPassing clouds.14 mph60%29.89 "HgN/A
5:00 pm66 °FBroken clouds.13 mph60%29.89 "HgN/A
4:30 pm68 °FBroken clouds.15 mph56%29.89 "HgN/A
4:00 pm68 °FScattered clouds.15 mph56%29.86 "HgN/A
3:30 pm68 °FBroken clouds.16 mph56%29.86 "HgN/A
3:00 pm70 °FBroken clouds.15 mph57%29.86 "HgN/A
2:30 pm68 °FPartly sunny.14 mph56%29.86 "HgN/A
2:00 pm70 °FSunny.14 mph53%29.86 "HgN/A
1:30 pm70 °FScattered clouds.16 mph50%29.86 "HgN/A
1:00 pm70 °FMore clouds than sun.17 mph53%29.86 "HgN/A
12:30 pm70 °FBroken clouds.16 mph50%29.86 "HgN/A
12:00 pm70 °FMore clouds than sun.15 mph53%29.89 "HgN/A
11:00 am70 °FScattered clouds.16 mph50%29.89 "HgN/A
10:30 am70 °FScattered clouds.17 mph50%29.89 "HgN/A
10:00 am70 °FScattered clouds.17 mph50%29.89 "HgN/A
9:33 am68 °FScattered clouds.17 mph53%29.89 "HgN/A
9:00 am68 °FPartly sunny.16 mph56%29.89 "HgN/A
8:30 am68 °FBroken clouds.17 mph60%29.89 "HgN/A
8:22 am68 °FBroken clouds.17 mph60%29.86 "HgN/A
8:00 am68 °FBroken clouds.17 mph64%29.86 "HgN/A
7:30 am68 °FScattered clouds.14 mph64%29.86 "HgN/A
6:30 am66 °FBroken clouds.17 mph68%29.83 "HgN/A
6:00 am66 °FPassing clouds.17 mph73%29.83 "HgN/A
5:39 am68 °FPassing clouds.17 mph69%29.83 "HgN/A
5:00 am68 °FPassing clouds.18 mph73%29.80 "HgN/A
4:30 am68 °FPartly cloudy.17 mph69%29.80 "HgN/A
4:05 am68 °FMostly cloudy.17 mph73%29.80 "HgN/A
4:00 am68 °FMostly cloudy.16 mph73%29.80 "HgN/A
3:41 am68 °FPartly cloudy.21 mph69%29.80 "HgN/A
3:30 am68 °FPartly cloudy.21 mph73%29.80 "HgN/A
3:00 am66 °FPartly cloudy.23 mph83%29.80 "HgN/A
2:39 am66 °FSprinkles. Partly cloudy.18 mph83%29.80 "HgN/A
2:00 am66 °FPassing clouds.20 mph83%29.80 "HgN/A
1:30 am66 °FPassing clouds.20 mph83%29.80 "HgN/A
1:00 am66 °FMostly cloudy.16 mph88%29.80 "HgN/A
12:32 am66 °FSprinkles. Partly cloudy.17 mph83%29.80 "HgN/A
Weather by CustomWeather, © 2017

See weather overviewHow to use our weather pages